Weather History for Cedar Rapids, IA

Change the Weather History Date:

Friday, June 21, 2013

  Actual Average Record
Temperature  
Mean Temperature 74 °F 71 °F  
Max Temperature 82 °F 82 °F 100 °F (1988)
Min Temperature 65 °F 61 °F 44 °F (1963)
Degree Days  
Heating Degree Days 0 1  
Month to date heating degree days 28 29  
Since 1 June heating degree days 28 29  
Since 1 July heating degree days 6997 6866  
Cooling Degree Days 9 7  
Month to date cooling degree days 88 100  
Year to date cooling degree days 162 149  
Since 1 June cooling degree days 88 100  
Growing Degree Days 23 (Base 50)    
Moisture  
Dew Point 67 °F    
Average Humidity 73    
Maximum Humidity 82    
Minimum Humidity 63    
Precipitation  
Precipitation 0.82 in 0.18 in 1.26 in (1954)
Month to date precipitation 2.06 3.34  
Year to date precipitation 22.25 14.78  
Sea Level Pressure  
Sea Level Pressure 29.99 in    
Wind  
Wind Speed 12 mph (SE)    
Max Wind Speed 35 mph    
Max Gust Speed 41 mph    
Visibility 8 miles    
Events Rain , Thunderstorm    
T = Trace of Precipitation, MM = Missing Value Source: NWS Daily Summary

Daily Weather History Graph

Daily Weather History Graph

Search for Another Location

Airport:

Trip Planner

Search our weather history database for the weather conditions in past years. The results will help you decide how hot, cold, wet, or windy it might be!

Date:

Astronomy

Jun. 21, 2013 Rise Set
Actual Time 5:31 AM CDT 8:45 PM CDT
Civil Twilight 4:57 AM CDT 9:19 PM CDT
Nautical Twilight 4:13 AM CDT 10:04 PM CDT
Astronomical Twilight 3:19 AM CDT 10:57 PM CDT
Moon 6:55 PM CDT (6/21) 3:49 AM CDT (6/21)
Length of Visible Light 16h 22m
Length of Day
15h 13m
Waxing Gibbous, 95% of the Moon is Illuminated
Jun 21
Waxing Gibbous
Jun 23
Full
Jun 29
Last Quarter
Jul 8
New
Jul 15
First Quarter

Hourly Weather History & Observations

Time (CDT) Temp. Heat Index Dew Point Humidity Pressure Visibility Wind Dir Wind Speed Gust Speed Precip Events Conditions
12:27 AM 77.0 °F - 66.2 °F 69% 30.00 in 10.0 mi SSE 9.2 mph - N/A Thunderstorm Partly Cloudy
12:52 AM 77.0 °F - 66.0 °F 69% 29.98 in 10.0 mi South 11.5 mph - N/A   Clear
1:52 AM 77.0 °F - 66.0 °F 69% 29.97 in 10.0 mi SSE 10.4 mph - N/A   Clear
2:52 AM 75.9 °F - 66.9 °F 74% 29.96 in 10.0 mi South 11.5 mph - N/A   Clear
3:52 AM 75.0 °F - 66.9 °F 76% 29.94 in 10.0 mi South 10.4 mph 19.6 mph N/A   Clear
4:52 AM 75.0 °F - 66.9 °F 76% 29.96 in 10.0 mi South 11.5 mph - N/A   Scattered Clouds
5:52 AM 75.0 °F - 66.9 °F 76% 29.94 in 9.0 mi South 9.2 mph - N/A   Mostly Cloudy
6:52 AM 75.0 °F - 66.9 °F 76% 29.94 in 9.0 mi South 13.8 mph - N/A   Clear
7:52 AM 75.9 °F - 66.9 °F 74% 29.92 in 10.0 mi South 13.8 mph 24.2 mph N/A   Clear
8:52 AM 77.0 °F - 68.0 °F 74% 29.94 in 9.0 mi South 13.8 mph 20.7 mph N/A   Clear
9:52 AM 75.9 °F - 68.0 °F 76% 30.01 in 9.0 mi North 24.2 mph 33.4 mph N/A   Mostly Cloudy
10:00 AM 75.2 °F - 64.4 °F 69% 30.05 in 8.0 mi North 26.5 mph 39.1 mph N/A Thunderstorm Thunderstorm
10:10 AM 71.6 °F - 60.8 °F 69% 30.07 in 10.0 mi NNE 33.4 mph 41.4 mph 0.00 in Rain , Thunderstorm Thunderstorms and Rain
10:34 AM 66.2 °F - 64.4 °F 94% 30.09 in 1.5 mi NNE 23.0 mph 32.2 mph 0.08 in Rain , Thunderstorm Thunderstorms and Rain
10:36 AM 66.2 °F - 64.4 °F 94% 30.09 in 1.0 mi NNE 24.2 mph 31.1 mph 0.22 in Rain , Thunderstorm Thunderstorms and Rain
10:41 AM 66.2 °F - 64.4 °F 94% 30.10 in 1.5 mi NE 18.4 mph 31.1 mph 0.26 in Rain , Thunderstorm Thunderstorms and Rain
10:52 AM 66.0 °F - 64.0 °F 93% 30.09 in 1.8 mi NE 16.1 mph 26.5 mph 0.36 in Rain , Thunderstorm Thunderstorms and Rain
11:31 AM 64.4 °F - 64.4 °F 100% 30.12 in 3.0 mi East 13.8 mph - 0.43 in Rain , Thunderstorm Thunderstorms and Rain
11:44 AM 66.2 °F - 64.4 °F 94% 30.12 in 5.0 mi ENE 17.3 mph - 0.45 in Rain , Thunderstorm Light Thunderstorms and Rain
11:52 AM 66.0 °F - 64.0 °F 93% 30.09 in 10.0 mi ENE 17.3 mph 25.3 mph 0.45 in Rain , Thunderstorm Light Rain
12:06 PM 66.2 °F - 64.4 °F 94% 30.08 in 10.0 mi East 13.8 mph 21.9 mph 0.00 in Rain Light Rain
12:52 PM 70.0 °F - 66.0 °F 87% 30.00 in 10.0 mi ESE 13.8 mph - 0.01 in   Partly Cloudy
1:52 PM 75.0 °F - 66.9 °F 76% 29.97 in 10.0 mi SE 13.8 mph 23.0 mph N/A   Clear
2:52 PM 79.0 °F - 66.9 °F 66% 29.92 in 10.0 mi SSE 13.8 mph 21.9 mph N/A   Clear
3:52 PM 82.0 °F 84.9 °F 68.0 °F 62% 29.92 in 10.0 mi SSE 18.4 mph 25.3 mph N/A   Clear
4:52 PM 81.0 °F 83.8 °F 68.0 °F 65% 29.88 in 10.0 mi SSE 17.3 mph 24.2 mph N/A   Clear
5:52 PM 82.0 °F 85.9 °F 70.0 °F 67% 29.87 in 10.0 mi SSE 12.7 mph 24.2 mph N/A   Clear
6:52 PM 80.1 °F 82.9 °F 69.1 °F 69% 29.89 in 10.0 mi South 9.2 mph - N/A   Clear
7:52 PM 79.0 °F - 69.1 °F 72% 29.90 in 10.0 mi SE 5.8 mph - N/A   Clear
8:52 PM 75.9 °F - 70.0 °F 82% 29.92 in 10.0 mi ESE 6.9 mph - N/A   Clear
9:52 PM 75.9 °F - 69.1 °F 79% 29.94 in 10.0 mi ESE 5.8 mph - N/A   Clear
10:52 PM 75.9 °F - 70.0 °F 82% 29.96 in 10.0 mi SE 4.6 mph - N/A   Mostly Cloudy
11:52 PM 75.9 °F - 70.0 °F 82% 29.94 in 10.0 mi SE 5.8 mph - N/A   Partly Cloudy